Wind_Speed
3 3 4 3 1 2 4 3 2 3 1 3 2 5 11 4 1 5 6 6 2 4 1 12 17 18 21 22 21 21 21 20 19 19 16 13 12 10 9 8 6 5 5 6
4 3 2 6 3 3 2 2 4 3 1 0 4 9 4 2 1 1 3 4 2 3 4 7 15 18 22 24 22 23 22 22 20 18 15 10 12 10 10 9 7 5 4 5
5 1 3 2 2 3 2 3 2 3 4 2 6 5 2 3 3 2 3 2 2 3 6 7 12 17 20 22 24 25 23 22 20 17 15 11 11 12 11 11 8 6 4 3
1 1 3 1 2 4 2 1 3 2 4 3 3 4 4 4 4 2 3 4 4 2 4 5 11 15 19 21 22 22 21 20 19 16 14 13 12 11 10 12 11 8 5 3
3 5 3 2 1 2 2 2 3 3 4 3 1 3 6 1 5 5 1 3 4 4 3 6 11 17 18 21 22 21 20 19 17 15 13 12 11 10 12 12 11 9 6 4
2 1 1 2 3 3 6 4 4 3 2 1 3 3 5 5 5 5 3 2 4 4 3 5 8 15 17 18 21 21 21 18 15 13 12 10 11 12 12 12 10 8 5 3
2 1 1 1 4 2 3 4 3 4 3 5 3 1 9 2 1 4 6 3 4 4 3 6 8 13 18 21 22 21 19 17 15 13 12 12 12 12 11 10 9 8 6 5
4 5 4 2 2 6 4 5 5 6 3 3 1 6 5 1 3 4 5 4 4 6 3 5 9 14 19 21 22 22 20 19 16 15 15 13 12 12 11 9 8 7 5 3
4 4 1 3 1 2 3 3 2 7 1 2 4 6 4 3 3 3 5 4 4 5 4 4 8 14 19 21 21 22 21 19 17 16 15 14 13 12 12 11 8 5 3 1
2 2 1 2 1 3 2 1 3 3 2 5 4 5 5 5 7 5 4 4 2 3 4 5 9 14 16 17 19 20 21 21 20 18 16 16 13 11 9 7 5 3 1 1
3 3 1 1 5 6 1 2 3 2 3 4 2 5 3 3 8 9 6 4 2 3 4 4 9 14 20 20 20 21 22 24 21 18 15 13 11 8 6 4 2 0 2 4
3 4 3 4 1 3 2 4 4 4 5 3 1 8 3 3 4 6 5 5 4 5 5 5 11 13 16 21 24 26 22 22 18 15 12 9 6 4 3 2 2 3 5 6
3 1 4 7 3 2 2 2 2 3 2 6 3 6 1 1 2 4 7 4 3 5 9 9 12 15 17 19 18 18 20 17 15 11 8 6 4 2 3 2 3 5 6 7
4 2 7 9 6 4 3 4 4 3 3 5 12 19 3 8 11 8 8 7 8 8 7 8 10 13 15 19 20 18 15 13 10 8 6 4 4 4 4 4 5 6 8 9
2 4 4 6 6 3 6 7 7 9 12 12 19 15 5 6 11 13 8 7 6 8 7 6 7 11 13 13 14 14 12 9 6 5 5 5 4 4 4 5 6 8 9 10
3 3 2 3 8 9 12 6 10 16 15 14 18 21 3 5 1 9 12 13 11 10 8 8 9 11 11 13 13 12 9 6 4 5 5 5 5 6 7 7 9 9 10 10
1 1 4 6 2 11 10 7 6 2 3 4 7 5 4 4 2 3 7 8 8 9 8 9 9 12 13 12 10 8 5 4 4 5 5 5 6 7 8 8 8 9 10 11
3 3 2 6 3 4 6 3 3 4 5 4 5 3 3 4 5 6 4 4 6 7 7 7 12 12 10 8 7 5 3 4 6 6 6 6 7 8 9 9 10 11 12 11
6 3 3 2 3 6 2 2 1 3 6 2 4 2 2 4 3 3 4 3 4 6 9 10 10 10 10 7 3 3 6 7 8 8 7 8 9 11 12 12 12 11 12 13
2 1 2 2 4 5 4 3 3 3 5 3 2 3 2 2 2 1 5 5 7 11 11 11 10 11 7 2 2 5 6 7 8 8 9 11 11 11 12 12 11 11 13 14
1 1 5 4 4 8 4 4 2 3 5 3 4 5 5 4 4 3 7 6 7 7 8 7 9 10 5 1 3 5 7 9 10 10 11 10 10 11 11 11 11 12 14 14
5 4 4 3 3 7 6 2 5 5 3 4 4 5 5 3 5 4 6 5 5 7 7 8 7 5 2 4 7 8 9 8 9 10 10 10 10 10 9 10 12 13 13 15
2 6 4 7 6 4 5 5 3 4 5 5 5 4 6 6 5 7 5 5 9 10 9 7 4 1 2 5 6 7 8 9 10 10 11 10 9 8 9 11 13 13 14 15
4 4 3 2 3 5 4 5 4 5 7 5 5 7 7 6 6 5 5 5 7 7 6 5 3 3 2 3 6 7 9 9 10 10 10 9 9 10 11 12 13 13 14 14
4 3 4 6 7 7 5 7 8 7 3 5 5 7 8 5 5 5 4 7 9 8 7 5 3 4 5 5 6 7 9 9 9 9 9 10 11 13 14 14 15 15 16 14
4 6 4 6 7 5 6 5 5 8 9 7 6 4 4 7 6 6 5 10 11 9 8 4 4 4 4 6 9 7 8 9 8 8 9 11 12 14 15 18 21 16 16 16
Wind_Direction
11 74 222 229 147 95 115 134 244 263 78 311 238 277 283 287 15 4 4 8 144 199 221 187 186 187 189 190 190 188 182 180 180 172 165 165 163 160 159 152 136 115 88 72
25 222 140 116 105 114 107 143 256 273 58 232 347 294 274 254 127 351 347 12 40 135 121 148 168 176 183 184 188 183 182 179 179 179 174 170 171 169 167 162 153 138 112 83
170 155 150 115 123 137 171 192 218 227 328 42 322 305 232 202 163 111 25 345 17 171 160 157 162 173 176 180 181 180 180 178 177 180 174 160 159 156 162 169 167 162 147 109
150 117 159 136 198 134 253 123 113 50 40 258 10 269 265 222 216 119 17 20 11 23 152 167 164 167 175 178 176 177 176 176 175 177 179 177 175 170 181 179 176 173 164 141
234 158 164 181 218 187 188 85 91 96 88 40 6 99 265 9 238 197 123 18 4 344 206 181 175 168 167 167 171 172 170 171 174 177 184 182 171 164 161 164 167 164 156 145
86 4 57 118 68 60 143 87 57 60 98 22 228 151 273 193 204 152 153 29 5 359 100 134 164 158 155 160 162 164 163 161 166 169 167 166 159 150 147 148 153 153 150 142
84 169 76 87 99 36 85 72 327 343 7 224 171 48 248 214 98 159 155 94 24 21 106 135 150 154 154 156 156 157 158 145 146 147 142 142 143 145 149 151 155 155 150 140
166 299 165 1 154 182 179 150 163 219 225 273 115 231 249 148 79 79 97 103 60 47 54 147 157 161 157 157 156 155 150 138 137 134 129 127 126 127 125 125 125 122 117 103
150 257 118 57 108 87 183 201 127 101 53 20 226 285 269 138 133 123 125 101 69 42 45 103 144 157 156 157 156 152 146 138 136 130 125 120 117 117 117 117 116 115 112 85
180 344 359 105 104 39 149 146 74 7 272 258 272 283 245 221 204 178 165 134 89 58 67 91 124 142 145 147 147 149 145 137 133 128 125 121 119 117 118 118 117 115 83 307
129 106 264 100 197 183 72 321 36 118 156 213 279 252 212 230 201 186 171 148 97 62 60 93 112 129 135 137 139 137 135 130 126 124 122 119 113 110 111 116 118 291 296 299
4 148 233 228 297 166 124 193 152 146 253 226 244 267 359 263 210 144 173 164 151 125 100 93 109 113 121 126 132 132 129 121 118 110 106 98 98 104 105 72 345 312 308 311
212 333 349 326 1 27 221 211 132 117 107 202 175 263 54 87 173 214 191 188 152 137 130 125 121 121 121 116 113 111 112 107 110 109 110 117 100 69 40 11 337 323 318 316
155 170 184 240 219 135 200 204 200 166 169 242 231 273 230 223 220 219 208 192 164 150 133 128 113 114 111 114 118 114 107 105 109 119 110 88 60 30 7 349 335 326 322 318
123 228 225 258 271 213 222 217 192 203 236 247 274 264 278 239 217 210 181 150 158 138 132 126 115 112 111 110 109 111 114 125 115 91 65 35 11 356 340 328 323 324 322 318
32 279 63 284 255 255 274 252 227 236 250 265 272 280 307 298 245 173 176 161 170 161 151 130 122 123 125 130 134 137 125 102 68 44 25 2 346 341 335 328 327 326 324 318
284 259 347 280 69 326 302 246 231 207 219 188 253 291 341 295 198 151 151 154 159 154 139 140 140 145 149 144 132 115 102 67 28 14 358 342 332 332 325 323 323 325 323 322
205 124 197 283 4 273 245 207 171 209 258 240 287 340 9 61 63 62 54 126 132 125 127 126 147 155 153 142 126 112 59 10 356 350 342 332 322 319 317 324 332 331 324 323
218 191 256 260 217 297 83 326 73 53 287 230 161 179 157 126 111 80 62 83 116 117 136 145 153 155 150 137 93 14 352 339 336 336 334 328 323 327 324 329 327 319 313 313
82 238 177 16 279 262 226 246 204 163 275 240 175 212 175 34 183 171 114 110 125 134 145 149 153 150 156 141 356 336 328 324 326 323 325 328 323 317 315 317 312 308 311 308
333 67 219 244 251 283 221 220 177 89 247 206 189 202 180 195 203 149 141 137 123 136 130 137 154 158 163 302 308 313 319 324 324 323 318 313 313 310 309 306 304 300 305 302
171 151 212 150 215 279 166 134 153 216 215 206 203 202 190 206 142 163 179 153 162 150 157 154 162 154 163 296 313 317 307 305 304 305 310 312 311 307 300 293 298 297 298 295
302 190 197 179 219 221 207 221 236 188 203 210 177 188 172 165 198 175 190 173 178 181 160 148 139 121 323 298 287 281 288 296 303 305 306 308 307 302 294 292 298 292 295 292
270 183 223 41 284 250 256 252 239 227 220 202 189 170 167 184 178 175 177 168 166 159 155 159 183 255 272 276 279 293 299 299 300 303 309 312 310 312 300 290 290 285 287 289
205 138 228 264 289 301 273 240 247 246 218 183 170 181 192 150 180 175 166 168 180 177 170 178 239 281 305 295 295 307 302 300 301 305 312 314 312 309 306 302 300 292 291 284
193 206 175 234 235 204 257 260 251 212 210 209 179 161 135 175 183 171 162 178 184 178 178 212 264 290 316 310 311 319 302 298 296 298 305 309 308 311 310 309 306 300 283 282
Height
793 797 801 797 801 802 804 806 808 809 819 815 808 815 801 800 800 801 801 800 797 798 799 801 805 809 814 820 824 828 832 837 840 844 847 850 851 854 856 858 859 860 861 861
798 799 802 805 804 804 805 808 811 811 817 815 816 807 803 798 798 802 802 801 798 798 800 802 804 808 812 816 821 826 829 834 839 842 845 848 850 853 855 858 860 861 861 862
798 802 804 802 805 803 808 809 810 815 818 824 824 798 793 794 797 801 803 803 800 797 799 802 804 807 811 815 819 823 828 832 836 841 843 846 849 852 854 857 859 860 861 861
800 806 803 804 802 807 801 814 815 818 821 816 826 810 797 794 793 797 803 803 802 800 800 802 803 806 809 814 819 824 828 832 835 839 842 844 846 848 851 854 856 858 860 861
795 806 804 803 802 808 808 818 822 831 845 847 823 829 787 797 792 794 799 802 803 802 800 802 803 806 810 814 818 823 827 832 835 838 841 842 844 846 849 852 855 858 860 861
807 812 809 808 817 816 825 823 831 843 841 841 851 824 788 790 785 794 800 802 803 801 799 802 807 808 811 815 819 823 827 830 835 837 840 842 844 846 849 852 855 857 859 860
806 808 815 814 813 818 821 822 831 829 841 810 849 835 783 783 789 790 797 802 804 803 801 802 806 809 812 815 820 824 829 831 834 837 839 842 844 847 849 852 854 856 857 859
809 802 814 819 820 820 819 831 833 822 816 804 837 818 777 793 802 803 803 805 805 804 803 803 806 809 812 816 819 824 828 831 835 838 840 843 845 847 850 852 854 856 858 859
814 794 822 821 823 825 820 822 827 856 865 860 806 798 789 801 802 805 805 806 807 807 806 805 806 809 812 816 820 823 827 832 836 839 842 844 846 848 850 851 853 855 857 857
801 810 821 825 825 828 827 830 824 853 829 827 808 817 774 799 800 805 806 808 810 810 808 807 807 810 814 819 821 825 828 831 835 838 842 844 846 849 850 852 853 855 856 856
829 822 819 822 825 831 838 845 844 839 837 821 826 791 800 799 798 801 807 810 812 812 812 811 810 813 813 819 823 828 830 831 836 839 842 845 847 848 850 851 852 853 854 854
825 835 830 807 848 854 845 836 839 820 834 847 830 800 799 811 812 808 812 810 811 812 814 816 815 818 819 820 823 827 834 834 837 840 843 845 847 849 850 850 851 851 851 851
825 828 837 810 836 840 839 845 850 840 839 839 827 787 799 802 807 812 812 811 813 812 812 816 817 819 822 824 828 831 834 837 837 841 844 846 848 849 848 848 849 849 849 848
811 829 817 801 801 822 827 836 842 828 832 808 790 767 803 797 799 805 806 808 809 812 815 817 817 822 825 827 829 832 835 838 841 843 845 846 846 846 846 846 846 846 846 846
816 828 814 808 805 814 815 814 824 823 803 793 765 782 790 793 792 793 801 808 815 813 816 818 820 824 828 830 832 834 838 841 843 842 843 844 845 844 844 844 844 843 843 843
824 824 834 843 805 808 806 812 815 802 796 793 786 781 796 796 793 791 792 800 807 810 814 818 822 826 829 832 834 837 838 839 840 840 841 842 842 842 842 841 841 840 839 839
824 824 820 810 804 803 808 808 802 812 823 810 795 794 798 794 794 795 798 800 805 809 813 818 821 825 830 833 834 835 837 838 839 839 840 840 840 839 840 839 838 837 837 836
832 831 824 818 819 827 809 828 824 820 821 811 806 804 803 802 802 802 803 804 807 811 817 820 822 826 830 832 833 834 836 837 837 837 837 838 838 837 837 834 833 833 833 833
819 818 816 833 832 805 797 814 815 808 810 808 803 809 806 804 804 806 808 809 811 813 818 821 824 826 829 831 831 832 834 835 835 835 835 835 835 832 832 830 830 831 831 830
822 820 823 847 826 833 809 804 806 810 805 810 811 812 813 810 806 808 811 812 814 816 819 821 823 824 828 829 829 831 832 833 833 834 832 831 830 830 829 828 828 828 828 827
848 848 826 834 841 825 804 807 807 819 814 803 808 810 816 810 808 807 809 812 814 817 819 820 823 825 825 826 828 828 829 830 830 829 830 830 828 826 825 825 825 825 825 824
839 851 851 833 845 843 800 803 810 802 800 801 805 809 813 809 808 809 810 811 815 818 820 821 822 823 823 823 824 825 826 828 828 828 826 825 824 823 823 823 823 822 821 821
846 831 835 823 812 797 797 794 796 796 798 799 802 803 803 805 806 806 810 812 814 817 818 819 820 820 821 822 823 825 826 827 825 823 822 822 821 821 821 820 819 818 817 816
826 827 827 818 797 801 801 794 793 794 793 793 793 794 798 800 801 806 809 811 814 816 816 816 818 819 820 821 822 823 823 822 821 820 819 819 818 818 817 816 815 813 812 811
825 824 816 814 804 799 797 793 790 790 791 790 790 791 793 797 801 803 807 810 813 815 815 816 818 819 820 820 821 820 819 817 816 816 816 815 815 814 813 812 810 809 807 806
821 812 817 807 797 800 793 786 785 786 785 786 789 792 792 794 798 801 805 808 811 812 813 815 816 817 818 818 817 816 815 813 813 814 813 813 811 810 809 807 804 803 802 801